Location: Tr�vern
(48.0333°N, 4.6000°W)
Time: 01:34:08
(UTC+00:00)

Lacrosse 5 - Pass Details

Date: 14 July 2020
Orbit: 717 x 720 km, 57.0° (Epoch: 09 August)

Event Time Altitude Azimuth Distance (km) Brightness Sun altitude
Exits shadow 01:49:49 12° 259° (W) 2,058 3.9 -17.8°
Maximum altitude 01:54:21 50° 334° (NNW) 912 2.6 -17.5°
Drops below altitude 10° 01:59:18 10° 50° (NE) 2,207 5.4 -17.2°
Sets 02:01:46 0° 56° (NE) 3,129 6.2 -17.0°
